Regional Weather Roundup
Issued by NWS Cleveland, OH

Home | Current Version | Previous Version | Graphics & Text | Print | Product List | Glossary On
Versions: 1 2 3 4 5 6 7 8 9 10 11 12 13 14 15 16 17 18 19 20 21 22 23 24 25 26 27 28 29 30 31 32 33 34 35 36 37 38 39 40 41 42 43 44 45 46 47 48 49 50
000
ASUS41 KCLE 261300
RWRCLE
OHIO REGIONAL WEATHER ROUNDUP
NATIONAL WEATHER SERVICE WILMINGTON, OH
900 AM EDT TUE MAY 26 2015

NOTE: "FAIR" INDICATES FEW OR NO CLOUDS BELOW 12,000 FEET WITH NO
SIGNIFICANT WEATHER AND/OR OBSTRUCTIONS TO VISIBILITY.

OHZ001>008-015>018-024>027-034-035-043-044-261400-
   NORTHWEST OHIO

CITY           SKY/WX    TMP DP  RH WIND       PRES   REMARKS
DEFIANCE       MOSUNNY   71  64  78 SW10      30.07F
FINDLAY        MOSUNNY   73  64  73 S16       30.09F
TOLEDO EXPRESS PTSUNNY   70  64  81 SW9G18    30.08S
TOLEDO EXEC    MOSUNNY   72  63  73 S12       30.09S
LIMA           MOSUNNY   71  64  78 SW14      30.10S
$$

OHZ009>014-019>023-028>033-038-089-261400-
   NORTHEAST OHIO

CITY           SKY/WX    TMP DP  RH WIND       PRES   REMARKS
CLE-HOPKINS    CLOUDY    71  63  75 SW8       30.14S
CLE-LAKEFRONT  CLOUDY    72  63  73 S13       30.11S
CUY CO. ARPT   CLOUDY    72  64  78 SW12      30.13S
LORAIN-ELYRIA  PTSUNNY   71  64  78 S10       30.12S
ASHTABULA      CLOUDY    71  64  78 S10       30.14F
AKRON-CANTON   PTSUNNY   71  63  75 SW12      30.17R
WOOSTER        NOT AVBL
MANSFIELD      MOSUNNY   71  63  75 S17       30.14F
YOUNGSTOWN     CLOUDY    71  64  78 S8        30.17R
$$

OHZ042-051>053-060>062-070>072-077>081-261400-
  SOUTHWEST OHIO

CITY           SKY/WX    TMP DP  RH WIND       PRES   REMARKS
CINC-COVINGTON PTSUNNY   72  64  76 S15       30.13
CINC-LUNKEN    PTSUNNY   72  65  78 S12       30.13R
HAMILTON       MOSUNNY   73  65  75 S3        30.13R
DAYTON         NOT AVBL
WRIGHT-PAT AFB PTSUNNY   69  65  86 S9        30.13R
DAYTON GENERAL PTSUNNY   71  65  81 S12       30.13R
WILMINGTON     CLOUDY    72  64  76 S10       30.14S
$$

OHZ036-037-039>041-045>050-054>059-063>069-073>076-082>088-261400-
  CENTRAL AND SOUTHEAST OHIO

CITY           SKY/WX    TMP DP  RH WIND       PRES   REMARKS
COLUMBUS       CLOUDY    68  64  87 S6        30.15R
OSU AIRPORT    CLOUDY    68  63  84 S8        30.15R
BOLTON FIELD   CLOUDY    66  64  94 SE5       30.16R
RICKENBACK AFB NOT AVBL
NEWARK         CLOUDY    69  65  86 S3        30.16R
MARION         MOSUNNY   70  63  78 S10       30.13F
LANCASTER      CLOUDY    69  65  86 S7        30.17R
ZANESVILLE     PTSUNNY   69  64  84 S6        30.18R
NEW PHILLY     PTSUNNY   71  66  84 S3        30.18R
$$



USA.gov is the U.S. government's official web portal to all federal, state and local government web resources and services.